COSMOS 1670 DEB, 44569

Orbit data source: Space-Track

COSMOS 1670 DEB, 44569 is space debris in LEO originally from a launch on Thu, 01 Aug 1985 UTC launched from the Tyuratam Missile And Space Complex (TTMTR). Debris objects in space refer to the collection of defunct objects orbiting the Earth. Examples of debris include non-operational satellites, rocket bodies, and fragments generated from explosions, collisions, or faulty payload assembly.

Loading next visibility...
Identifier
44569, 1985-064F
Orbit
LEO
Last TLE update
1 day ago
Origin
Manufacturer
Unknown
Mission
Spacecraft
Bus & Motor
Unknown
Mass
Unknown
Launch date (UTC)
1985-08-01 (40 years ago)
Launch vehicle
Unknown
Launch site
Tyuratam Missile And Space Complex (TTMTR)
Object type
Payload
Rocket body
Debris
Shape & HBR
Unknown
Radar Cross Section
Small (<0.1 m²)

Expand to show TLE details & history

TLE from 1 day ago
0 COSMOS 1670 DEB
1 44569U 85064F   25199.61178334  .00009816  00000-0  27810-2 0  9994
2 44569  64.9049 238.7657 0016608 182.6466 260.2609 14.45799688710323
Epoch: 2025-07-18T14:40Z
TLE epoch observation values (Epoch: 2025-07-18T14:40:58.08Z)
Latitude
64.05477°
Longitude
155.08108°
Altitude
751.452 km
Speed
7.484 km/s
True Right ascension
20h 47m 56s
True Declination
63° 55' 09"
Sunlit
Object was in daylight at epoch
Visualization orbit readout
Latitude
64.92951°
Longitude
174.14525°
Altitude
749.525 km
Speed
7.486 km/s
Apparent Right ascension
18h 28m 01s
Apparent Declination
21° 25' 44"
Sunlit
Object is in daylight
Visualization observer readout
Local Sidereal Time
04:27:56
Azimuth
329.714° NNW
Elevation
-22.567°
Doppler factor
1
Orbital elements
Apogee altitude
749.799 km
Perigee altitude
726.162 km
Semi-major axis
7,116.118 km
Eccentricity
0.00166
Inclination
64.9049°
RAAN
238.7657°
Arg. of periapsis
182.6466°
True anomaly
260.0734°
Mean anomaly
260.2609°
Eccentric anomaly
260.16714°
Mean motion
3.61558 °/min
Orbital period
99.57 mins
BSTAR
0.002781
Loading maneuver chart data...
Loading SW <> Apogee altitude chart data...
Loading historical data...
Loading historical data...
Loading historical data...
Loading historical data...
Loading historical data...
Loading historical data...
Loading historical data...
|